Weather History for Harrison, AR

Change the Weather History Date:

Wednesday, May 15, 2013

  Actual Average Record
Temperature  
Mean Temperature 72 °F 66 °F  
Max Temperature 81 °F 76 °F 91 °F (1911)
Min Temperature 62 °F 55 °F 31 °F (1905)
Degree Days  
Heating Degree Days 0 3  
Month to date heating degree days 115 52  
Since 1 July heating degree days 3951 3973  
Cooling Degree Days 7 3  
Month to date cooling degree days 30 35  
Year to date cooling degree days 62 72  
Growing Degree Days 22 (Base 50)    
Moisture  
Dew Point 60 °F    
Average Humidity 75    
Maximum Humidity 100    
Minimum Humidity 49    
Precipitation  
Precipitation 0.34 in 0.15 in 3.14 in (1946)
Month to date precipitation 2.85 2.45  
Year to date precipitation 16.19 15.76  
Snow  
Snow 0.00 in 0.00 in - ()
Month to date snowfall 0.1 0.0  
Since 1 July snowfall 4.7 11.5  
Snow Depth 0.00 in    
Sea Level Pressure  
Sea Level Pressure 29.96 in    
Wind  
Wind Speed 6 mph (South)    
Max Wind Speed 13 mph    
Max Gust Speed 18 mph    
Visibility 8 miles    
Events Rain , Thunderstorm    
T = Trace of Precipitation, MM = Missing Value Source: NWS Daily Summary

Daily Weather History Graph

Daily Weather History Graph

Search for Another Location

Airport:

Trip Planner

Search our weather history database for the weather conditions in past years. The results will help you decide how hot, cold, wet, or windy it might be!

Date:

Astronomy

May. 15, 2013 Rise Set
Actual Time 6:06 AM CDT 8:12 PM CDT
Civil Twilight 5:37 AM CDT 8:41 PM CDT
Nautical Twilight 5:02 AM CDT 9:16 PM CDT
Astronomical Twilight 4:24 AM CDT 9:54 PM CDT
Moon 10:40 AM CDT (5/15) 12:00 AM CDT (5/15)
Length of Visible Light 15h 03m
Length of Day
14h 06m
Waxing Crescent, 27% of the Moon is Illuminated
May 15
Waxing Crescent
May 17
First Quarter
May 24
Full
May 31
Last Quarter
Jun 8
New

Hourly Weather History & Observations

Time (CDT) Temp. Heat Index Dew Point Humidity Pressure Visibility Wind Dir Wind Speed Gust Speed Precip Events Conditions
12:53 AM 68.0 °F - 51.1 °F 55% 29.98 in 10.0 mi South 8.1 mph - N/A   Clear
1:53 AM 70.0 °F - 50.0 °F 49% 29.98 in 10.0 mi SSW 6.9 mph - N/A   Clear
2:53 AM 64.9 °F - 48.9 °F 56% 29.98 in 10.0 mi South 4.6 mph - N/A   Clear
3:53 AM 68.0 °F - 48.0 °F 49% 29.97 in 10.0 mi South 6.9 mph - N/A   Clear
4:53 AM 68.0 °F - 48.9 °F 50% 29.97 in 10.0 mi SW 3.5 mph - N/A   Clear
5:53 AM 66.9 °F - 51.1 °F 57% 29.98 in 10.0 mi South 5.8 mph - N/A   Clear
6:53 AM 66.0 °F - 52.0 °F 60% 29.99 in 10.0 mi South 5.8 mph - N/A   Clear
7:53 AM 70.0 °F - 54.0 °F 57% 29.99 in 10.0 mi SE 8.1 mph - N/A   Clear
8:53 AM 73.9 °F - 57.9 °F 57% 29.99 in 10.0 mi Variable 3.5 mph - N/A   Clear
9:53 AM 75.9 °F - 61.0 °F 60% 29.99 in 10.0 mi SE 8.1 mph - N/A   Clear
10:53 AM 79.0 °F - 62.1 °F 56% 29.98 in 10.0 mi South 10.4 mph - N/A   Clear
11:53 AM 80.1 °F 81.5 °F 63.0 °F 56% 29.98 in 10.0 mi South 6.9 mph - N/A   Clear
12:53 PM 79.0 °F - 63.0 °F 58% 29.96 in 10.0 mi South 10.4 mph - N/A   Clear
1:53 PM 79.0 °F - 64.0 °F 60% 29.95 in 10.0 mi South 9.2 mph - N/A   Partly Cloudy
2:53 PM 77.0 °F - 63.0 °F 62% 29.94 in 10.0 mi SSW 8.1 mph - N/A   Partly Cloudy
3:53 PM 78.1 °F - 64.0 °F 62% 29.93 in 10.0 mi SSW 9.2 mph 18.4 mph N/A   Partly Cloudy
4:53 PM 75.0 °F - 63.0 °F 66% 29.92 in 10.0 mi SSW 6.9 mph - N/A   Scattered Clouds
5:21 PM 71.6 °F - 64.4 °F 78% 29.96 in 7.0 mi SSW 6.9 mph - 0.00 in Rain , Thunderstorm Light Rain
5:36 PM 69.8 °F - 64.4 °F 83% 29.98 in 1.8 mi SSW 11.5 mph 17.3 mph 0.09 in Rain , Thunderstorm Heavy Rain
5:51 PM 66.2 °F - 62.6 °F 88% 29.97 in 2.0 mi SSW 3.5 mph 16.1 mph 0.30 in Rain , Thunderstorm Rain
5:53 PM 66.9 °F - 63.0 °F 87% 29.95 in 3.0 mi South 5.8 mph - 0.30 in Rain , Thunderstorm Rain
6:03 PM 66.2 °F - 64.4 °F 94% 29.97 in 7.0 mi South 5.8 mph - 0.01 in Rain , Thunderstorm Light Rain
6:23 PM 66.2 °F - 64.4 °F 94% 29.97 in 7.0 mi South 5.8 mph - 0.03 in Rain Light Rain
6:53 PM 66.0 °F - 64.0 °F 93% 29.94 in 10.0 mi Calm Calm - 0.04 in Rain Light Rain
7:53 PM 66.0 °F - 64.0 °F 93% 29.92 in 8.0 mi SSE 4.6 mph - 0.00 in   Mostly Cloudy
8:53 PM 66.0 °F - 64.9 °F 96% 29.93 in 4.0 mi Calm Calm - N/A   Overcast
9:00 PM 66.2 °F - 64.4 °F 94% 29.97 in 2.5 mi Calm Calm - N/A   Overcast
9:15 PM 66.2 °F - 64.4 °F 94% 29.96 in 5.0 mi SE 4.6 mph - N/A   Overcast
9:53 PM 66.0 °F - 64.9 °F 96% 29.93 in 7.0 mi SE 5.8 mph - N/A   Overcast
10:53 PM 64.9 °F - 64.0 °F 97% 29.90 in 7.0 mi SE 5.8 mph - N/A   Overcast
11:53 PM 64.0 °F - 63.0 °F 96% 29.89 in 7.0 mi SSE 5.8 mph - N/A   Overcast